Home   Weather   Nizhny Novgorod   Past weeks

Flag for Russia Past Weather in Nizhny Novgorod, Russia — Yesterday and Last 2 Weeks

Now
32 °F

Light snow. Low clouds.


Feels Like: 26 °F
Forecast: 31 / 35 °F
Wind: 6 mph from Southeast

Location: Nizhny Novgorod/Strigino

Current Time: Feb 24, 2017 at 2:39:38 am

Latest Report: Feb 24, 2017 at 2:00 am


Visibility: 1 mi

Pressure: 29.24 "Hg

Humidity: 93%

Dew Point: 30 °F

Location of Nizhny NovgorodLocation

Past Weather in Nizhny Novgorod — Graph

°F

Nizhny Novgorod Temperature Yesterday

Maximum temperature yesterday: 32 °F (at 8:00 pm)
Minimum temperature yesterday: 23 °F (at 2:00 am)
Average temperature yesterday: 27 °F

High & Low Weather Summary for the Past Weeks

 TemperatureHumidityPressure
High37 °F (Feb 20, 12:30 pm)100% (Feb 9, 11:00 am)30.54 "Hg (Feb 9, 11:00 am)
Low-6 °F (Feb 17, 3:30 am)47% (Feb 19, 3:00 pm)29.15 "Hg (Feb 21, 4:00 pm)
Average26 °F83%29.91 "Hg
* Reported Feb 9 1:00 am — Feb 24 1:00 am, Nizhny Novgorod, Weather by CustomWeather, © 2017

Note: Actual official high and low records may vary slightly from our data, if they occured in-between our weather recording intervals... More about our weather records

Advertising

Nizhny Novgorod Weather History for the Previous 24 Hours

Scroll right to see more
 ConditionsComfort  
Time TempWeatherWind HumidityBarometerVisibility
1:00 am
Fri, Feb 24
32 °FSnow showers. Low clouds.8 mph93%29.24 "Hg1 mi
12:30 am32 °FLight snow. Low clouds.8 mph93%29.21 "Hg2 mi
12:00 am32 °FLight snow. Low clouds.6 mph93%29.21 "Hg2 mi
11:30 pm
Thu, Feb 23
32 °FLight snow. Overcast.6 mph93%29.24 "Hg1 mi
11:00 pm32 °FLight snow. Low clouds.6 mph93%29.24 "Hg1 mi
10:30 pm32 °FLight snow. Overcast.6 mph93%29.24 "Hg3 mi
10:00 pm32 °FLight snow. Overcast.6 mph93%29.24 "Hg2 mi
9:30 pm32 °FLight snow. Overcast.6 mph87%29.27 "HgN/A
9:00 pm32 °FOvercast.8 mph87%29.27 "HgN/A
8:30 pm32 °FOvercast.6 mph87%29.27 "HgN/A
8:00 pm32 °FOvercast.8 mph87%29.27 "HgN/A
7:30 pm30 °FOvercast.6 mph93%29.27 "HgN/A
7:00 pm30 °FOvercast.6 mph93%29.30 "HgN/A
6:30 pm30 °FPassing clouds.8 mph93%29.30 "HgN/A
6:00 pm30 °FPassing clouds.6 mph86%29.30 "HgN/A
5:30 pm30 °FPassing clouds.6 mph86%29.30 "HgN/A
5:00 pm30 °FPartly sunny.6 mph86%29.33 "HgN/A
4:30 pm30 °FPartly sunny.6 mph86%29.33 "HgN/A
4:00 pm30 °FPartly sunny.3 mph86%29.33 "HgN/A
3:30 pm30 °FPartly sunny.3 mph80%29.33 "HgN/A
3:00 pm28 °FPartly sunny.3 mph86%29.36 "HgN/A
2:30 pm28 °FPartly sunny.6 mph86%29.36 "HgN/A
2:00 pm28 °FPartly sunny.3 mph80%29.36 "HgN/A
1:30 pm27 °FPartly sunny.3 mph86%29.36 "HgN/A
1:00 pm27 °FLow clouds.3 mph86%29.36 "HgN/A
12:30 pm27 °FLight snow. Low clouds.1 mph86%29.39 "HgN/A
12:00 pm27 °FLight snow. Overcast.1 mph86%29.39 "Hg5 mi
11:30 am27 °FLight snow. Overcast.1 mph86%29.39 "HgN/A
11:00 am25 °FLight snow. Overcast.No wind93%29.39 "HgN/A
10:30 am25 °FLight snow. Low clouds.No wind86%29.42 "HgN/A
10:00 am25 °FLight snow. Overcast.1 mph93%29.42 "HgN/A
9:30 am25 °FSnow flurries. Low clouds.No wind93%29.42 "Hg5 mi
9:00 am25 °FSnow flurries. Low clouds.1 mph86%29.42 "Hg4 mi
8:30 am25 °FSnow flurries. Low clouds.1 mph86%29.42 "Hg2 mi
8:00 am23 °FLight snow. Low clouds.1 mph93%29.42 "HgN/A
7:30 am23 °FLight snow. Low clouds.1 mph93%29.42 "HgN/A
7:00 am23 °FLight snow. Low clouds.1 mph93%29.42 "HgN/A
6:30 am23 °FLight snow. Low clouds.1 mph93%29.42 "HgN/A
6:00 am23 °FLight snow. Low clouds.1 mph93%29.42 "HgN/A
5:30 am23 °FLight snow. Overcast.3 mph93%29.42 "HgN/A
5:00 am23 °FLight snow. Overcast.3 mph93%29.42 "HgN/A
4:30 am23 °FLight snow. Overcast.3 mph93%29.42 "HgN/A
4:00 am23 °FLight snow. Overcast.3 mph93%29.42 "Hg3 mi
3:30 am23 °FLight snow. Overcast.3 mph93%29.42 "Hg6 mi
3:00 am23 °FLight snow. Overcast.3 mph93%29.42 "HgN/A
2:30 am23 °FOvercast.3 mph93%29.45 "HgN/A
2:00 am23 °FOvercast.6 mph93%29.45 "HgN/A
Weather by CustomWeather, © 2017

See weather overviewHow to use our weather pages